Regional Weather Roundup
Issued by NWS

Home | Current Version | Previous Version | Graphics & Text | Print | Product List | Glossary On
Versions: 1 2 3 4 5 6 7 8 9 10 11 12 13 14 15 16 17 18 19 20 21 22 23 24 25 26 27 28 29 30 31 32 33 34 35 36 37 38 39 40 41 42 43 44 45 46 47 48 49 50
000
ASUS45 KBOU 011007
RWRCO

WEATHER ROUNDUP FOR COLORADO
NATIONAL WEATHER SERVICE DENVER/BOULDER CO
400 AM MDT MON JUN 01 2015

NOTE: "FAIR" INDICATES FEW OR NO CLOUDS BELOW 12000 FEET WITH NO
SIGNIFICANT WEATHER AND/OR OBSTRUCTIONS TO VISIBILITY.

COZ001>005-013-030-031-011100-
...NORTHWEST COLORADO...

CITY           SKY/WX    TMP DP  RH WIND       PRES   REMARKS
CRAIG          PTCLDY    54  42  64 E8        30.15F
HAYDEN         PTCLDY    52  39  62 E13       30.17F
MEEKER         PTCLDY    50  43  77 MISG      30.18R
MOUNT WERNER   NOT AVBL
STEAMBOAT SPGS PTCLDY    44  40  86 CALM      30.21F
WALDEN         CLEAR     37  32  81 SE9       30.28S
$$

COZ006>008-011-011100-
...WEST CENTRAL VALLEYS...

CITY           SKY/WX    TMP DP  RH WIND       PRES   REMARKS
GRAND JUNCTION CLEAR     61  44  53 E13       30.05F
MONTROSE       CLEAR     53  41  63 SE6       30.16R
EAGLE          PTCLDY    57  52  82 W3        30.26S
RIFLE          PTCLDY    56  43  61 SE5       30.14R
DELTA          CLEAR     57  44  60 NE7       30.12S
NUCLA          PTCLDY    57  37  47 CALM      30.18R
$$

COZ017>023-064>068-011100-
...SOUTHWEST COLORADO...

CITY           SKY/WX    TMP DP  RH WIND       PRES   REMARKS
DURANGO        PTCLDY    49  40  71 N3        30.22S
CORTEZ         PTCLDY    59  40  49 E7        30.14F
PAGOSA SPRINGS PTCLDY    50  37  60 CALM      30.30S
TELLURIDE      MOCLDY    50  34  54 SE7       30.38S
WOLF CREEK PAS NOT AVBL
$$

COZ009-010-012-014-032>034-037-058>063-011100-
...CENTRAL COLORADO...

CITY           SKY/WX    TMP DP  RH WIND       PRES   REMARKS
ASPEN          CLEAR     42  36  79 SW7       30.28F
BUENA VISTA    CLEAR     47  36  65 NE3       30.33R
COPPER MTN     PTCLDY    45  28  53 W13       30.56S
BERTHOUD PASS  FAIR      37  32  81 NW17      30.58S
COTTONWOOD PAS NOT AVBL
GUNNISON       PTCLDY    45  37  76 N3        30.35F
KREMMLING      PTCLDY    41  36  81 CALM      30.31F
LEADVILLE      CLEAR     34  31  88 NE3       30.42F
MONARCH PASS   CLOUDY    41  32  70 SW15      30.65F
SALIDA         CLEAR     52  38  60 NW7       30.37S
SUNLIGHT       PTCLDY    50  32  50 CALM      30.48F
WILKERSON PASS PTCLDY    45  32  61 W5        30.53F
$$

COZ069>075-011100-
...SAN LUIS VALLEY/SANGRE DE CRISTO MOUNTAINS...

CITY           SKY/WX    TMP DP  RH WIND       PRES   REMARKS
ALAMOSA        PTCLDY    44  38  79 CALM      30.30S
LA VETA PASS   PTCLDY   N/A N/A N/A MISG      30.45S
SAGUACHE       PTCLDY    46  37  71 N8        30.33S
$$

COZ035-036-038>040-011100-
...NORTHERN COLORADO FRONT RANGE...

CITY           SKY/WX    TMP DP  RH WIND       PRES   REMARKS
DENVER INTL AP MOCLDY    54  48  80 S10       30.10S
DMNS CITY PARK   N/A     58  45  62 S5G10     30.10S
AURORA         PTCLDY    56  47  70 S7        30.12R
FRONT RANGE AP CLEAR     59  48  67 MISG      30.11S
ERIE MUNI ARPT NOT AVBL
BOULDER MUN AP PTCLDY    54  43  66 W5        30.08F
CENTENNIAL     MOCLDY    54  46  74 SE5       30.13S
BROOMFIELD     PTCLDY    59  41  51 CALM      30.11S
FORT COLLINS   CLEAR     52  50  93 NW5       30.10S
LONGMONT       CLEAR     52  48  87 CALM      30.10F
$$

COZ041-046-047-076>085-087-088-011100-
...PIKES PEAK/PALMER DIVIDE AND SOUTHERN FOOTHILLS...

CITY           SKY/WX    TMP DP  RH WIND       PRES   REMARKS
COLO. SPRINGS  MOCLDY    52  47  83 N7        30.18F
A. F. ACADEMY  PTCLDY    47  45  93 N7        30.20
ELLICOTT         N/A    N/A N/A N/A CALM      30.17S
FALCON         PTCLDY    52  45  78 CALM      30.22F
FORT CARSON    NOT AVBL
LIMON          PTCLDY    50  49  96 CALM      30.13S
MONUMENT HILL  PTCLDY    52  45  76 MISG      30.21F
TRINIDAD       MOCLDY    55  48  77 W8        30.16S
$$

COZ042>045-048>051-090-091-011100-
...NORTHEAST COLORADO...

CITY           SKY/WX    TMP DP  RH WIND       PRES   REMARKS
GREELEY ARPT   CLEAR     52  48  87 NW5       30.07S
AKRON          CLEAR     54  50  86 W7        30.07R
BURLINGTON     CLEAR     55  51  86 W8        30.06S
WRAY           FOG      N/A N/A N/A NW3       30.03S VSB<1/4
STERLING       CLEAR     54  52  94 CALM      30.03S
HOLYOKE        FOG       59  55  88 E5        30.04S VSB 1/2
FORT MORGAN    CLEAR     53 -14   6 CALM      30.07S
$$

COZ086-089-092>099-011100-
...SOUTHEAST COLORADO...

CITY           SKY/WX    TMP DP  RH WIND       PRES   REMARKS
PUEBLO         CLEAR     53  50  89 SW6       30.09F
LA JUNTA       PTCLDY    61  52  72 S5        30.07S
LAMAR          CLEAR     56  52  86 SE8       30.04R
SPRINGFIELD      N/A     57  55  93 SW9       30.08F
$$


USA.gov is the U.S. government's official web portal to all federal, state and local government web resources and services.